Theta_e
316 321 323 323 322 321 319 319 320 322 324 323 323 326 326 324 324 324 322 317 314 317 320 318 316 316 317 317 313 310 311 309 309 310 310 311 311 310 310 310 310 310 310 311 310 309 309 310 310 310 309 310 313 313 312 314 316 318 317 317 317 318 319 319 320 320 319 319 319 319 319 318 318 319 320 320 320 320 320 320 320 319 319 317 316 314
317 321 323 323 320 318 319 319 318 319 320 320 320 322 323 324 324 323 321 317 314 317 323 321 318 318 318 318 315 311 309 309 309 310 310 311 311 311 310 309 309 309 309 309 309 308 309 310 311 310 308 311 315 314 314 316 318 318 318 318 317 316 318 318 318 318 317 318 318 318 318 317 317 319 319 319 320 320 319 318 317 315 313 310 308 307
320 321 320 319 317 317 320 320 318 319 319 321 322 320 323 325 324 323 321 318 315 318 325 325 321 320 319 319 316 311 309 311 311 312 311 311 311 311 310 309 309 309 308 309 308 308 309 310 311 310 308 313 316 315 315 316 317 318 318 318 317 316 317 317 317 317 317 318 318 317 317 317 317 319 319 318 318 316 314 311 309 307 305 304 303 303
323 326 321 315 316 319 321 320 320 320 320 323 323 320 324 325 323 324 323 319 317 318 321 322 320 318 317 318 318 314 312 312 313 312 312 311 311 311 311 311 310 309 309 309 308 308 309 311 311 310 309 313 316 316 316 314 313 315 316 316 316 315 316 316 316 317 317 317 316 316 317 318 317 317 316 314 312 309 306 305 304 303 302 301 301 301
323 324 319 316 318 319 320 321 321 321 322 326 326 323 325 325 322 323 323 320 321 322 320 319 321 322 321 320 319 317 313 312 312 311 311 310 311 311 311 310 310 310 309 309 309 308 309 310 311 311 310 310 314 316 316 313 311 313 313 314 315 315 315 316 315 316 316 316 316 316 317 316 314 312 309 307 305 303 303 302 301 300 300 300 300 299
320 318 317 320 321 320 320 321 324 325 323 325 328 326 323 323 324 323 323 321 325 329 324 320 325 332 332 326 322 320 316 314 312 310 310 311 311 311 310 310 309 309 310 310 310 309 309 310 310 311 310 310 312 315 314 311 312 314 313 313 314 314 315 315 315 316 316 315 315 316 315 313 309 306 304 303 302 302 301 301 300 299 299 298 299 298
319 318 319 322 323 323 322 321 325 326 322 323 327 327 324 322 322 323 321 322 328 331 324 320 326 330 328 324 323 323 321 319 315 310 310 310 311 311 310 310 309 309 309 309 309 309 309 309 310 311 311 310 312 313 311 311 314 315 314 314 315 315 315 315 315 315 315 315 315 313 310 307 305 303 302 301 301 300 300 300 299 299 298 298 298 298
320 319 321 322 323 325 323 322 325 323 324 327 326 327 329 323 322 324 322 323 329 329 323 322 325 325 323 323 322 322 322 321 317 313 310 309 310 311 310 310 310 310 309 309 309 308 308 309 309 310 310 311 312 313 311 313 315 314 313 314 315 315 315 314 314 314 314 314 313 309 305 304 303 303 302 300 300 300 299 299 298 298 298 297 297 297
319 321 324 323 322 324 324 326 326 322 323 327 324 327 329 325 326 328 325 325 326 325 324 325 323 323 325 327 323 320 321 321 318 316 312 308 309 309 309 310 309 310 309 309 309 308 308 308 309 309 309 311 313 313 312 314 314 312 313 314 315 314 314 314 313 313 313 312 308 304 303 303 302 301 301 300 299 299 299 299 298 298 297 297 296 296
320 319 320 323 323 324 325 326 325 324 322 321 321 326 330 329 329 328 326 326 325 323 325 325 323 323 326 327 324 320 322 323 320 318 314 309 309 309 309 309 309 309 309 308 309 308 308 308 308 309 309 311 314 313 313 315 313 312 313 314 314 314 313 312 312 311 310 308 304 302 302 302 301 301 301 300 299 299 298 298 298 297 297 296 296 296
318 314 315 320 321 319 321 319 317 320 319 318 323 329 330 329 329 328 327 325 324 324 324 325 324 323 325 329 327 322 324 324 320 319 317 311 309 309 309 309 309 308 308 308 308 307 307 307 308 309 309 310 313 314 314 315 313 312 313 314 313 312 311 310 309 308 306 304 302 302 301 301 302 301 301 300 299 298 298 298 297 297 296 296 296 296
317 317 317 317 316 315 319 318 315 317 317 319 329 330 327 328 328 327 324 322 324 326 325 324 322 321 324 329 329 324 322 323 322 321 321 314 309 309 309 309 308 308 308 307 307 307 306 306 308 309 309 310 313 314 314 315 313 312 313 313 312 310 308 308 307 305 304 302 301 301 300 301 301 301 300 300 299 299 298 297 297 296 296 296 296 295
319 321 319 316 314 315 322 322 319 320 320 322 327 326 324 325 327 327 324 323 324 324 322 321 321 321 322 324 324 322 320 322 320 317 317 313 309 309 309 308 308 308 307 307 307 306 306 306 308 309 309 310 312 314 314 314 312 312 313 312 309 307 306 305 304 303 302 301 300 300 300 300 300 300 299 299 299 298 297 297 297 296 296 296 295 295
324 323 319 317 317 316 320 322 321 322 321 321 322 324 325 324 326 328 326 324 325 325 320 317 319 323 323 323 323 321 318 318 315 312 314 314 312 312 310 309 308 307 307 307 306 306 306 306 307 308 308 309 312 314 314 313 312 312 312 310 307 306 304 303 302 302 301 300 300 299 299 299 299 299 298 298 298 298 297 297 296 296 296 295 295 295
325 325 322 320 318 318 318 319 322 323 320 319 321 323 325 327 331 331 328 327 328 327 320 315 320 327 327 326 322 314 311 312 312 313 314 313 313 312 310 308 308 307 307 306 306 306 306 306 307 308 309 309 311 313 313 312 312 311 311 308 305 304 302 302 301 301 300 299 299 299 298 298 298 298 298 298 297 297 297 296 296 296 295 295 295 295
321 326 325 318 316 318 318 317 319 321 320 319 322 324 324 327 329 327 326 324 323 324 321 317 323 327 324 322 316 309 309 310 310 311 311 311 310 309 308 307 307 306 306 306 305 305 305 306 306 308 309 309 310 312 312 311 311 310 308 306 304 303 302 301 301 300 299 299 298 298 298 298 298 298 297 297 297 296 296 296 296 296 295 295 295 294
321 325 322 315 315 315 316 317 316 318 322 320 320 322 321 324 325 325 325 321 319 323 324 320 323 324 321 320 317 314 314 313 310 308 308 308 307 307 306 306 306 306 306 306 305 305 304 305 306 308 309 309 309 311 311 310 310 309 306 304 303 302 301 300 300 299 299 298 298 298 298 298 297 297 297 297 297 296 296 296 296 295 295 295 294 294
325 326 319 316 319 314 311 315 315 314 318 321 321 320 319 322 326 327 327 324 323 325 324 322 323 324 323 322 319 315 316 317 315 310 307 305 305 305 306 306 306 306 306 305 305 304 304 305 305 307 309 309 309 310 310 310 309 307 305 303 302 301 301 300 299 299 298 298 298 298 298 297 297 297 297 296 296 296 296 296 296 295 295 295 294 294
326 326 320 316 319 315 311 316 318 314 314 318 320 319 320 326 326 325 325 326 327 326 326 325 324 322 322 322 321 317 317 320 318 312 309 307 304 304 305 305 305 305 305 304 304 304 304 305 306 307 309 310 310 311 311 310 308 306 304 303 302 301 300 300 299 299 298 298 298 298 298 297 297 296 296 296 296 296 296 296 296 295 295 295 294 294
324 325 324 315 315 316 314 317 322 319 315 315 316 316 321 326 325 324 324 324 327 327 326 327 325 323 321 321 323 321 319 319 316 313 312 308 304 304 305 305 304 305 305 305 304 304 305 306 306 307 308 310 310 310 310 309 306 304 303 302 301 301 300 299 299 298 298 297 297 297 297 297 296 296 296 296 296 296 296 296 295 295 295 295 294 294
323 323 324 316 314 316 317 319 321 320 317 317 318 318 319 320 320 323 323 323 327 328 327 326 324 325 325 321 319 321 321 319 316 314 312 307 305 306 306 305 306 306 306 305 305 305 305 306 306 307 308 309 310 310 308 307 305 303 303 302 301 300 300 299 299 298 298 297 297 297 297 296 296 296 296 296 296 296 296 295 295 295 295 294 294 294
322 324 325 319 315 318 320 320 317 317 318 318 318 319 319 318 320 323 322 322 323 324 327 327 324 325 326 321 317 318 320 318 313 313 311 307 306 307 306 307 307 307 307 306 305 305 306 306 306 306 308 309 309 308 307 305 304 303 302 302 301 300 300 299 299 298 297 297 297 297 296 296 296 296 295 295 295 295 295 295 295 295 295 294 294 294
321 325 325 322 318 317 319 318 313 315 319 318 318 320 319 318 320 323 323 323 321 321 323 324 324 323 319 319 320 317 315 314 311 310 309 308 308 308 307 307 307 307 307 306 305 305 305 305 306 306 308 308 308 307 305 304 303 302 302 301 301 300 299 299 299 298 297 297 297 296 296 296 296 296 295 295 295 295 295 295 295 295 294 294 294 294
321 323 323 323 321 316 316 318 315 315 317 318 319 321 319 318 319 321 323 324 323 323 322 321 324 322 315 316 315 310 309 312 311 310 310 309 309 308 307 307 307 306 306 305 304 304 304 304 305 306 307 308 307 306 304 303 303 302 301 301 301 300 299 299 298 298 297 297 296 296 296 296 296 295 295 295 295 295 295 294 294 294 294 294 294 294
322 323 323 325 325 321 319 321 319 316 316 318 320 319 316 317 318 319 321 322 322 322 322 322 323 321 318 317 313 311 312 312 309 310 310 310 309 308 307 307 306 305 305 305 304 303 303 304 305 306 307 307 306 305 303 303 302 302 301 301 300 300 299 299 298 297 297 296 296 296 296 296 295 295 295 295 295 294 294 294 294 294 294 294 293 293
322 323 323 324 325 325 324 324 322 318 316 317 319 318 316 317 318 319 320 321 321 321 322 322 322 321 321 317 315 316 317 315 311 310 310 310 310 309 308 307 306 305 306 305 304 303 303 304 305 306 306 306 305 304 303 302 302 301 301 301 300 300 299 298 298 297 296 296 296 296 296 296 295 295 295 295 294 294 294 294 294 294 294 293 293 293
321 320 321 323 324 324 324 323 322 320 317 317 318 318 317 317 317 318 320 320 321 322 321 320 320 322 321 319 319 320 319 318 316 310 308 310 309 309 309 308 306 306 306 305 304 303 303 303 304 305 306 306 305 304 303 302 302 302 301 301 300 300 299 298 298 297 296 296 296 296 296 295 295 295 294 294 294 293 293 293 293 293 293 293 293 292
324 321 320 323 323 322 323 321 320 320 319 318 318 317 317 316 317 318 319 319 322 323 322 321 320 321 320 319 321 321 319 319 316 309 307 310 309 309 309 308 306 306 305 304 303 303 303 304 304 305 305 305 304 303 303 302 302 301 301 301 300 299 299 298 297 297 296 296 296 296 296 295 295 294 294 294 293 293 293 293 293 293 292 292 292 292
324 321 320 322 322 321 321 320 320 320 319 318 318 317 317 316 316 317 318 318 320 321 321 321 322 322 320 318 320 319 317 316 314 311 310 310 309 308 307 306 306 306 305 305 304 304 305 304 304 304 305 304 304 303 302 302 301 301 301 301 300 300 299 298 297 297 296 296 296 296 295 295 294 294 293 293 292 292 292 292 292 292 292 292 291 291
319 321 320 320 321 320 320 320 319 319 318 318 317 316 316 316 316 316 317 317 318 319 319 320 321 321 319 320 321 317 314 312 311 310 310 310 309 308 307 306 306 306 305 306 306 305 304 304 304 303 303 303 303 303 302 302 302 301 301 301 300 299 299 298 297 297 296 296 296 295 294 294 293 293 293 292 292 292 292 291 291 291 291 291 291 291
314 320 321 320 320 320 320 319 319 320 319 319 318 317 316 315 315 315 316 316 317 318 318 318 320 319 316 318 320 315 312 311 310 309 309 309 309 308 307 307 306 306 306 306 305 304 303 303 302 301 301 302 302 302 302 302 302 301 301 300 300 299 299 298 298 297 297 297 296 295 294 293 293 293 292 292 292 291 291 291 291 291 291 291 291 290
313 318 321 320 320 320 320 319 319 319 319 319 319 319 317 316 315 314 315 316 316 317 318 317 318 318 316 317 316 313 311 311 309 308 308 308 309 309 308 307 307 306 306 305 305 304 303 303 302 302 303 303 303 303 303 302 302 301 301 300 300 299 299 298 298 297 297 296 295 294 294 293 293 292 292 292 291 291 291 290 290 290 291 291 291 290
315 318 319 319 320 320 320 320 319 318 319 320 320 319 318 317 316 315 315 315 315 316 318 318 318 317 317 319 318 316 315 313 309 309 310 309 308 308 309 309 308 307 306 306 305 305 305 304 304 305 306 306 306 305 304 303 302 302 301 300 299 298 298 298 298 297 297 296 295 294 293 293 292 292 292 292 291 291 290 290 290 290 290 291 290 290
315 316 316 316 319 320 318 318 318 319 320 321 321 321 320 318 317 317 316 315 314 314 315 317 317 317 317 319 319 317 316 314 312 313 314 312 310 309 309 309 308 308 307 307 306 306 306 306 306 306 307 307 306 305 304 303 303 302 300 299 298 298 298 297 297 297 296 295 295 294 293 292 292 292 292 291 291 290 290 290 290 290 290 290 290 290
314 314 315 314 316 318 316 316 319 321 320 320 318 317 318 317 317 318 318 316 315 315 315 315 316 316 315 314 314 314 313 313 313 313 313 312 311 310 309 308 308 308 308 307 307 307 306 306 307 307 306 306 305 304 303 303 303 301 300 299 298 298 297 297 297 296 296 295 294 293 293 292 292 291 291 291 290 290 289 289 289 289 289 290 290 290
313 312 313 314 315 316 316 317 320 320 318 318 315 311 312 316 317 317 318 318 316 315 315 315 314 315 313 310 310 312 312 312 311 310 309 309 309 309 309 309 309 309 309 309 309 308 308 308 308 307 307 306 305 304 304 304 303 302 301 299 298 298 298 297 297 296 296 295 294 293 293 292 292 291 291 290 290 290 289 289 289 289 289 289 290 289
313 313 313 314 315 315 316 318 318 318 318 319 317 313 312 316 318 318 319 318 316 315 315 315 315 315 313 309 309 310 310 309 310 309 308 308 309 309 309 310 310 310 310 309 309 308 308 307 307 306 306 305 305 305 304 304 303 302 301 300 299 298 297 297 297 296 296 295 294 294 293 292 292 291 291 290 290 290 289 289 289 289 289 289 289 289
313 313 313 314 315 315 316 317 317 318 319 318 317 314 309 308 311 315 317 317 316 313 312 314 316 316 314 309 306 306 308 311 313 311 308 308 309 309 310 310 310 310 309 309 309 308 307 306 305 305 305 305 305 306 305 305 303 302 301 300 299 298 297 297 297 297 296 295 295 294 293 293 292 292 291 291 290 290 290 289 289 289 289 289 289 289
309 310 311 313 315 314 316 317 318 319 318 316 316 311 305 303 307 311 315 317 313 305 304 309 313 313 311 307 304 306 311 314 314 311 309 310 309 309 310 311 310 310 310 309 308 308 307 306 306 306 306 306 306 306 305 304 303 302 301 300 299 298 298 298 298 297 297 296 295 295 294 293 292 292 291 291 291 290 289 289 289 289 288 288 289 289
308 310 310 312 315 315 315 316 317 317 317 315 314 309 303 303 308 313 318 318 308 301 301 307 309 308 307 305 305 309 313 314 314 311 309 310 309 308 309 310 309 309 309 307 307 307 307 307 307 307 306 305 304 304 303 302 301 300 300 300 299 298 299 299 299 298 297 296 295 295 294 293 293 292 292 292 291 290 290 289 289 288 288 288 288 289
308 309 310 312 314 314 315 316 316 317 317 313 310 305 302 305 311 316 319 312 303 300 304 306 307 307 306 305 306 310 309 308 310 310 308 309 309 308 308 308 308 308 308 308 308 308 308 308 307 305 304 303 302 302 301 301 300 300 300 299 298 299 299 299 298 297 296 296 295 295 294 293 293 292 292 292 291 290 290 289 289 288 288 288 288 288
309 310 310 311 313 313 315 315 315 317 315 308 304 301 302 310 316 314 309 304 300 302 305 306 307 307 306 304 306 307 306 306 307 309 308 309 309 309 309 309 309 309 309 308 307 306 306 304 303 302 301 300 300 300 300 300 299 299 299 298 298 298 298 298 297 296 296 295 295 294 294 293 293 292 292 291 291 290 290 289 289 288 288 288 288 288
310 311 310 311 312 312 313 314 316 317 311 304 303 304 306 312 315 307 301 301 302 303 304 305 306 307 306 305 305 305 305 305 306 307 307 307 307 307 308 307 307 307 306 305 305 304 302 301 300 299 299 298 298 298 297 298 298 297 298 297 297 296 296 296 296 295 295 295 294 294 294 293 293 292 292 291 291 290 290 289 289 288 288 288 288 288
312 312 312 312 313 313 314 314 313 311 305 302 305 308 308 309 308 304 303 304 304 304 303 303 304 306 306 306 305 304 304 303 303 303 303 303 303 303 303 302 302 302 302 301 301 300 299 299 298 297 297 297 297 297 296 297 296 296 296 295 294 293 293 293 294 294 294 294 294 294 294 293 293 292 292 291 291 290 290 289 289 288 288 288 288 288
311 309 310 313 311 310 311 311 306 302 300 300 303 304 304 305 304 305 306 306 304 303 301 300 302 304 306 306 304 303 303 302 301 301 301 300 300 299 299 298 298 298 299 299 298 298 298 297 297 297 296 296 296 296 295 295 294 294 293 293 292 292 292 292 292 292 293 293 293 293 293 293 293 293 292 292 292 291 291 290 290 290 289 289 288 288
305 303 307 312 309 305 304 303 301 299 299 301 302 302 303 304 304 305 305 303 302 301 300 299 300 301 303 305 304 303 302 301 300 300 299 298 298 297 297 296 297 297 297 297 297 297 296 296 296 296 296 295 295 294 294 293 293 292 292 292 291 291 291 291 291 291 291 291 292 292 292 292 293 293 293 293 292 292 292 292 291 291 290 290 290 289
302 301 306 310 309 309 307 304 301 300 299 300 302 302 302 303 303 302 302 301 300 300 299 299 299 299 300 302 302 302 301 300 299 299 297 296 296 296 295 296 295 295 295 295 295 295 295 295 295 294 294 294 294 293 293 292 292 292 292 291 291 291 291 291 291 291 291 291 291 291 291 291 291 292 292 292 293 293 293 293 292 292 292 292 291 291
304 304 307 308 306 305 303 299 297 297 298 299 301 301 301 302 302 301 300 300 300 300 299 298 298 298 298 298 299 299 299 299 299 298 296 295 295 295 295 295 294 294 294 294 294 294 294 294 293 293 293 293 293 293 292 292 292 292 292 291 291 291 291 291 291 291 291 291 291 291 291 291 291 291 291 291 291 292 292 292 292 292 292 292 292 292
305 305 306 306 303 300 298 296 295 297 299 299 299 300 301 301 301 301 300 300 300 299 298 298 297 297 297 297 297 297 297 298 297 296 295 294 294 294 294 294 294 294 294 294 294 293 293 293 293 293 293 293 292 292 292 292 292 292 292 292 291 291 291 291 291 291 291 291 291 291 291 290 290 290 290 290 290 290 291 291 291 291 291 291 292 291
303 305 304 303 303 303 301 299 298 302 304 301 300 302 302 301 300 301 301 301 300 299 298 297 297 296 296 296 296 296 296 296 295 294 294 294 294 294 294 294 293 293 293 293 293 293 293 293 293 292 292 292 292 292 292 292 292 291 291 291 291 291 291 291 291 291 291 291 291 291 291 291 291 290 290 290 290 290 290 290 290 290 290 290 290 290
302 305 304 303 305 305 302 299 299 303 305 303 302 304 304 301 301 301 301 301 300 298 297 297 297 296 296 296 295 295 295 295 294 294 294 294 293 293 293 293 293 293 293 293 293 293 292 292 292 292 292 292 292 292 292 292 291 291 291 291 291 291 291 291 291 291 291 291 291 291 291 290 290 290 290 290 290 290 290 290 290 290 289 289 289 289
Wind_Speed
7 3 2 5 6 7 8 9 9 7 6 4 3 3 4 4 5 4 3 4 6 4 6 9 8 9 10 8 12 20 23 22 23 21 22 25 28 29 28 27 26 24 22 21 18 15 15 15 13 13 13 14 15 13 13 14 16 15 13 16 18 17 17 17 18 17 16 14 15 17 17 15 16 16 16 16 15 14 13 11 10 9 8 7 7 7
5 4 6 8 8 8 8 9 9 7 6 6 4 4 5 3 5 5 3 3 3 3 5 5 6 9 10 8 11 15 15 18 25 26 25 28 29 31 31 29 27 25 24 22 20 17 17 17 16 16 15 16 17 17 17 17 18 17 17 17 17 18 18 17 17 16 15 15 16 17 16 16 18 19 17 16 15 14 12 11 10 10 11 11 12 12
3 4 9 11 9 7 7 7 7 8 7 7 5 3 5 4 4 5 4 2 1 2 4 5 5 8 10 8 10 13 16 23 33 34 33 33 33 34 33 31 29 28 27 25 22 20 19 20 19 18 17 19 19 19 20 20 20 20 20 19 17 17 17 17 16 15 16 18 17 15 16 17 19 19 17 15 15 14 13 14 15 16 17 16 16 16
4 5 11 14 10 6 7 7 6 6 5 5 5 3 4 4 2 3 4 4 2 1 3 4 6 7 8 7 10 18 23 24 30 34 34 33 34 36 36 35 34 33 31 29 25 22 22 23 22 21 20 23 23 22 22 22 22 23 22 20 19 17 17 17 17 17 18 19 18 16 18 18 18 19 18 17 18 18 18 20 20 19 18 17 16 15
7 7 7 9 10 7 7 7 6 6 4 4 5 5 4 3 5 6 3 2 3 4 3 4 6 7 6 8 10 12 14 16 21 25 28 29 31 32 33 34 35 35 33 31 28 25 25 26 25 23 22 24 26 25 23 21 21 22 21 19 19 19 19 19 19 19 19 19 20 20 21 20 20 20 21 22 24 23 22 22 21 19 17 16 15 14
9 11 6 3 6 8 8 7 6 7 4 4 4 7 7 6 7 6 1 3 4 5 3 2 3 7 4 6 9 5 2 9 14 17 24 28 28 29 32 34 34 33 32 30 27 26 27 27 26 25 24 26 28 27 24 21 21 21 20 20 20 19 19 19 19 19 18 18 20 21 22 24 25 27 26 25 25 24 22 21 20 19 16 14 13 12
5 10 9 5 6 8 8 7 6 7 5 3 5 6 8 8 7 6 2 1 1 4 3 3 2 7 6 5 9 6 5 9 10 11 19 26 27 31 34 35 35 34 32 30 27 26 28 29 29 28 27 27 28 28 25 23 24 22 21 21 20 20 20 19 19 19 19 19 19 20 22 25 27 29 28 25 24 22 20 19 18 17 16 13 11 11
4 9 9 8 7 7 7 6 6 7 7 4 5 4 6 7 7 6 4 3 3 3 4 2 3 5 9 7 7 8 10 11 9 10 14 22 27 30 33 34 36 36 34 33 30 29 29 30 30 30 29 28 28 27 26 26 25 24 23 23 22 21 21 20 20 20 20 20 21 23 25 27 27 26 26 25 23 20 19 18 17 15 14 13 11 10
2 8 9 10 8 6 6 5 6 9 6 6 5 5 6 5 5 3 4 2 1 2 4 3 2 3 9 6 2 4 8 10 12 13 14 20 26 28 31 34 35 35 34 33 32 30 30 30 31 30 29 29 29 28 27 27 26 25 25 24 23 23 22 22 22 22 21 21 23 26 27 28 26 24 24 23 21 20 18 16 15 14 13 12 10 9
0 5 7 8 7 6 5 1 3 8 5 4 3 6 6 4 4 5 4 3 3 2 5 6 4 4 8 5 2 1 4 9 11 12 13 20 28 30 31 33 33 33 33 32 31 30 30 30 31 30 30 30 31 29 28 28 27 27 27 25 25 24 24 24 24 24 23 23 25 27 26 25 24 23 23 22 21 19 17 15 15 14 12 11 9 8
1 1 2 3 4 5 5 3 3 3 6 7 6 6 7 6 5 4 3 4 2 5 6 9 10 7 6 4 4 4 5 7 8 8 8 14 25 31 32 33 33 33 33 31 30 29 29 29 31 32 31 33 33 31 30 30 29 28 28 27 26 25 24 25 26 25 25 26 26 25 23 21 21 21 21 21 20 18 16 15 14 13 12 10 9 8
4 1 1 2 4 6 7 4 5 3 4 7 5 4 3 4 4 5 4 4 1 7 6 10 12 10 8 6 3 5 5 5 6 7 7 10 21 31 34 35 35 34 33 32 31 31 30 31 34 35 34 35 35 34 33 32 30 30 29 27 27 26 26 26 27 27 28 29 27 24 22 20 19 18 18 18 17 17 16 14 13 13 11 10 8 7
2 3 2 1 3 6 7 3 3 5 4 5 5 6 3 2 3 3 2 0 4 7 4 7 8 6 10 8 7 9 10 7 7 7 9 12 21 29 33 36 37 36 35 34 34 34 33 34 37 38 37 37 38 37 36 34 33 31 30 29 28 28 28 28 28 29 29 29 27 24 22 20 19 18 17 16 15 15 15 13 12 12 10 9 8 7
3 5 1 2 3 8 10 6 3 2 2 5 6 6 5 3 1 3 4 2 4 5 4 3 5 3 6 6 10 14 14 13 10 9 11 14 20 27 32 36 36 37 37 37 37 37 36 36 38 39 39 39 40 39 38 36 35 33 32 31 30 30 30 30 30 30 30 29 27 24 22 20 19 18 17 16 15 15 15 13 12 11 9 8 7 6
5 5 5 7 4 10 13 9 7 5 5 5 4 6 5 5 4 4 4 3 4 4 4 1 3 4 3 3 7 9 9 8 9 11 10 11 17 23 28 32 34 36 37 37 38 38 38 37 37 40 40 40 41 40 39 38 36 35 34 33 33 33 33 32 32 31 31 29 27 25 23 21 19 18 17 16 15 15 14 13 12 10 9 8 7 6
6 6 6 6 5 12 13 7 8 8 3 3 3 5 3 5 5 3 3 4 2 2 3 2 4 5 4 5 6 3 5 3 3 7 9 11 16 21 26 31 34 36 37 38 38 39 38 37 38 40 40 40 41 41 41 40 38 37 36 36 35 35 35 34 33 32 31 29 28 26 24 22 20 19 18 18 17 15 14 12 11 9 9 8 6 6
5 4 3 2 3 6 8 5 7 6 4 2 2 4 4 4 5 2 3 1 2 3 4 4 5 5 3 8 8 4 3 4 3 4 10 13 17 22 27 32 34 36 37 39 39 40 39 38 38 40 41 41 42 43 42 41 39 38 38 38 37 37 36 35 34 33 31 30 28 27 25 23 21 20 19 18 17 16 15 13 11 9 9 8 7 5
5 2 3 2 1 3 2 3 3 3 6 6 4 5 2 2 2 2 1 3 2 4 5 4 7 5 2 6 4 5 3 8 7 6 7 11 17 23 28 32 34 35 36 37 38 39 39 39 39 40 41 42 43 43 42 41 40 39 39 39 39 38 37 36 34 33 31 30 29 27 25 23 22 20 19 18 17 16 15 13 12 10 9 8 7 6
4 2 3 0 2 2 2 4 3 2 4 5 4 4 4 1 1 2 2 2 2 4 5 3 5 6 7 6 1 4 9 11 10 7 6 10 18 25 28 31 33 34 35 37 38 39 39 39 40 41 42 43 43 43 42 41 40 40 39 39 39 38 37 36 35 34 32 30 29 27 25 24 23 22 21 19 17 16 14 13 12 11 10 9 8 6
3 3 3 1 1 1 1 2 4 3 0 3 2 2 2 2 3 4 3 3 3 3 5 4 4 5 7 7 8 10 13 14 12 9 9 14 23 28 30 32 33 35 37 38 40 40 40 39 40 41 43 44 44 43 43 42 42 42 41 40 40 39 38 37 36 35 33 31 30 28 26 25 24 23 22 20 19 17 15 14 13 12 11 9 8 6
2 3 3 1 2 1 2 4 8 10 7 3 3 4 2 1 2 1 2 2 4 3 3 4 8 7 4 5 10 13 14 14 13 12 12 18 26 30 31 33 36 38 39 39 41 41 40 40 41 42 43 44 44 44 44 44 44 43 43 42 42 41 40 39 37 35 34 32 30 28 27 26 26 25 23 22 20 18 17 16 15 13 12 10 8 7
3 3 4 2 2 4 5 6 6 7 7 6 7 8 7 6 4 1 4 3 4 4 4 3 9 11 4 4 8 11 11 11 14 14 14 20 28 31 32 35 37 38 39 39 40 40 40 41 42 43 45 46 46 46 46 46 45 45 44 44 43 42 41 40 38 36 35 33 31 29 28 27 27 26 25 23 22 20 19 18 16 14 13 11 9 8
4 3 4 3 4 5 5 5 1 3 3 3 3 5 7 7 7 6 7 4 3 4 4 2 7 10 1 2 4 6 8 10 15 17 16 21 28 32 33 35 36 37 37 37 38 40 41 42 43 45 46 47 48 48 48 48 47 47 46 45 45 44 42 40 38 37 35 34 32 31 29 29 28 27 26 25 24 22 21 19 17 16 14 12 11 10
4 3 3 1 1 1 3 5 5 4 4 2 3 5 7 8 8 6 5 3 3 6 5 2 7 8 1 1 3 3 4 8 13 19 21 22 25 29 32 34 35 36 36 36 37 39 40 42 44 46 48 49 50 50 50 50 49 48 47 47 46 45 43 41 39 38 36 35 33 32 31 31 30 29 28 27 25 24 22 21 19 17 15 14 14 12
5 3 4 2 1 2 2 3 4 2 2 4 5 6 8 9 7 2 1 1 4 9 8 5 10 8 1 3 4 4 3 4 7 14 21 23 24 27 31 33 34 36 35 36 38 39 42 44 46 48 50 51 52 52 52 51 50 49 49 48 47 45 44 42 40 39 37 36 35 34 33 33 32 31 30 28 27 26 24 22 20 18 17 16 16 14
8 4 6 6 6 7 7 5 4 3 3 3 4 7 10 12 12 7 2 4 10 8 9 9 13 6 2 4 5 4 3 4 5 9 17 22 24 26 28 31 33 35 37 39 39 41 44 46 48 50 51 52 52 53 53 52 51 51 50 49 48 46 45 43 41 40 39 38 37 36 35 35 34 33 32 30 29 27 25 23 21 20 19 18 17 15
4 2 9 11 10 12 12 9 5 7 7 7 9 12 14 14 15 10 6 9 9 2 5 13 15 11 8 3 4 6 4 5 7 7 14 21 23 24 27 30 33 35 37 38 39 41 43 46 49 50 51 52 53 54 54 53 52 52 51 50 48 47 46 44 42 41 40 39 38 37 37 37 36 34 33 32 30 29 27 25 23 22 21 20 18 16
3 4 11 14 15 16 18 15 7 10 11 13 14 15 15 15 16 14 14 16 7 3 10 16 10 14 18 9 8 10 6 5 8 11 18 21 22 24 26 28 31 33 35 36 38 41 44 47 50 51 52 53 54 54 54 53 53 52 52 51 49 48 47 45 43 42 41 40 40 40 39 38 37 35 34 32 32 30 28 26 25 24 22 21 19 17
3 7 12 14 17 18 21 19 11 10 10 11 13 16 17 17 19 20 21 19 10 8 18 16 9 16 21 11 11 12 9 12 16 21 23 21 20 23 24 27 31 34 36 38 41 44 46 48 50 51 53 54 54 55 54 54 53 52 52 51 50 49 48 46 45 43 42 42 42 41 40 39 38 36 35 34 33 32 30 28 27 25 23 21 20 19
2 7 10 12 14 16 21 20 12 9 7 7 11 15 17 20 24 24 22 20 16 16 23 20 15 21 18 7 10 15 19 21 19 19 21 21 21 23 24 28 32 35 38 40 42 45 46 47 48 50 52 53 55 55 55 55 54 53 53 53 51 51 49 48 46 45 44 44 43 42 41 40 39 38 37 36 35 33 32 30 29 26 24 22 21 20
1 4 4 5 6 12 18 16 9 8 8 8 10 13 17 19 19 17 16 17 16 18 24 21 18 20 12 6 9 15 17 15 11 14 21 24 24 24 26 31 33 35 38 39 40 42 43 44 45 47 49 51 52 54 54 54 54 53 54 54 53 52 50 49 47 46 46 46 45 44 43 41 41 39 38 38 36 35 33 31 30 27 25 24 23 22
2 2 1 4 3 11 14 10 8 7 6 8 13 20 21 15 10 11 14 15 15 18 21 16 15 18 9 6 8 9 10 11 12 17 22 25 26 27 29 33 34 36 37 37 38 39 40 43 45 45 47 48 49 50 51 52 53 53 54 54 53 53 51 49 48 47 47 47 46 45 44 43 42 41 40 39 38 37 35 33 31 29 27 26 25 23
3 3 1 3 5 10 8 4 6 3 3 8 15 22 21 13 11 13 14 16 18 17 15 13 15 17 7 6 8 7 8 11 14 20 24 26 27 29 31 34 35 36 36 36 36 38 39 42 42 42 42 42 44 46 48 50 51 52 53 53 52 52 51 49 49 49 49 49 47 47 46 45 44 43 41 41 39 38 36 34 33 31 30 28 26 25
4 4 4 3 4 8 4 6 5 4 9 10 8 9 13 15 18 18 17 19 19 16 14 13 15 13 6 7 10 9 10 14 19 26 31 30 30 31 33 34 33 32 32 32 33 34 35 36 35 35 36 37 39 41 43 44 46 47 49 49 49 50 50 50 50 51 51 50 48 48 47 46 45 44 43 42 40 39 38 37 35 33 32 30 28 27
5 5 4 3 2 4 3 6 3 8 10 6 3 2 6 11 16 19 19 21 19 17 17 18 18 17 10 9 12 13 17 22 25 27 29 29 30 32 33 32 29 27 27 26 26 27 28 29 29 30 32 33 34 37 37 38 39 41 43 44 45 47 48 49 51 51 51 50 49 49 48 47 46 45 44 43 42 41 40 38 37 35 34 32 30 29
7 5 2 2 2 1 2 5 8 5 5 5 3 3 2 2 5 9 13 18 18 17 17 18 22 21 15 12 15 16 18 20 18 17 19 22 22 24 26 24 21 19 19 17 17 19 21 22 23 24 25 26 29 30 30 30 31 33 36 38 40 43 45 48 50 51 51 51 50 49 49 48 47 46 45 44 44 43 42 40 39 37 36 33 31 30
9 7 3 3 4 3 4 7 5 6 11 12 6 3 4 5 7 8 8 13 14 15 17 17 19 19 14 13 16 15 12 10 6 5 9 13 14 15 16 15 13 13 12 11 12 13 14 15 17 17 18 19 20 20 19 20 23 27 30 33 36 38 41 45 47 49 50 50 50 49 48 48 47 47 47 47 46 45 44 42 41 39 37 35 33 32
7 7 7 6 4 4 5 7 4 5 11 10 5 5 6 4 5 8 6 8 5 7 12 15 17 18 12 10 12 12 11 6 3 5 12 18 16 15 13 11 11 11 10 10 10 11 12 13 12 13 12 11 11 10 11 14 19 23 27 31 33 36 39 41 43 45 47 47 47 46 46 46 47 47 48 48 48 46 45 43 42 41 39 38 36 34
2 2 5 6 4 4 6 6 5 7 8 3 3 5 2 2 5 7 2 6 2 3 5 8 12 13 9 10 13 13 9 6 6 8 17 17 13 13 12 10 10 9 8 9 9 9 10 10 9 8 8 7 8 10 12 16 19 23 27 29 30 34 36 37 38 39 40 40 41 42 43 44 45 46 47 48 48 47 45 44 43 42 41 39 38 36
2 1 4 6 6 6 7 6 4 5 5 3 5 5 1 4 8 8 1 7 3 5 6 3 7 8 10 16 17 11 7 8 5 7 13 13 10 12 11 9 10 10 10 11 10 8 8 6 6 7 8 9 10 12 15 17 19 22 24 25 28 30 30 29 30 31 32 34 35 37 39 40 42 43 44 45 46 45 44 44 44 43 42 41 40 38
2 2 4 7 8 9 9 7 4 4 4 3 5 6 6 7 6 5 5 5 1 3 5 2 5 10 16 19 16 8 5 4 3 5 9 10 11 13 12 10 10 8 8 8 8 7 7 8 9 8 7 8 10 11 13 15 16 18 19 21 24 24 21 21 23 24 26 28 30 32 34 36 38 39 40 41 42 43 44 44 44 43 42 42 41 40
3 2 3 6 7 6 7 6 4 5 4 5 5 5 7 6 3 5 4 2 1 0 2 3 2 9 15 15 10 6 4 5 4 5 7 8 10 10 9 8 7 7 7 8 8 7 8 8 8 9 9 9 9 10 10 11 12 12 14 17 17 13 12 14 17 19 21 24 26 28 30 32 33 35 36 38 39 41 42 42 42 42 41 42 43 43
6 5 3 5 5 2 3 5 4 4 5 12 11 5 4 4 4 6 6 3 1 2 3 3 1 5 11 11 7 6 7 8 8 8 9 9 8 6 6 6 5 5 6 6 7 8 8 8 8 8 8 8 9 9 9 10 9 9 10 11 8 5 7 10 13 15 18 20 22 24 26 28 30 31 33 35 37 38 39 39 40 40 40 41 43 44
5 5 4 4 4 4 4 6 3 2 4 10 9 3 4 5 6 7 5 2 1 3 3 4 3 3 9 11 10 11 10 10 11 11 11 11 9 7 7 6 6 7 7 7 7 8 8 8 8 8 8 8 9 9 9 9 8 8 8 6 4 5 7 9 11 13 16 17 19 21 22 24 26 28 30 31 33 35 36 37 38 39 39 40 41 43
4 5 4 3 3 3 3 4 2 2 2 5 2 2 6 9 7 5 2 1 4 5 5 5 5 4 6 8 11 12 11 11 12 11 10 9 9 9 9 9 9 9 9 9 9 8 8 8 8 8 8 9 9 9 9 8 7 6 5 4 5 6 8 9 10 12 13 15 16 17 19 20 22 24 26 28 30 32 34 35 36 37 38 39 40 41
1 2 3 3 2 1 1 1 1 1 2 4 2 3 7 8 6 4 3 5 8 7 6 5 5 4 5 6 9 11 10 10 10 9 9 9 10 11 11 11 11 10 9 9 9 8 8 8 7 7 7 7 8 8 7 6 5 4 4 5 6 7 8 9 10 11 11 12 13 14 15 17 19 20 22 24 27 29 31 32 34 35 36 37 38 39
1 2 2 3 3 3 1 1 1 2 3 4 3 4 7 8 8 8 8 9 9 7 4 4 4 4 5 5 7 8 8 9 9 9 10 11 11 12 12 11 11 10 9 8 7 6 6 5 5 5 5 5 6 6 6 5 4 4 5 6 7 7 8 8 9 9 10 11 12 13 14 15 17 18 20 22 24 26 28 30 31 33 34 35 36 37
3 6 4 2 2 3 1 1 1 2 5 7 6 7 10 10 11 12 12 10 8 6 4 3 2 3 4 5 5 7 8 9 8 9 12 13 12 12 12 10 10 9 8 7 6 5 4 4 4 5 5 5 6 7 7 6 6 6 6 6 6 7 8 9 9 10 11 12 13 14 15 16 17 18 20 21 22 24 26 28 30 32 33 34 35 36
6 8 5 2 4 2 1 1 1 1 4 8 10 13 15 14 14 14 12 10 8 5 4 3 2 1 2 3 4 6 8 9 9 10 13 14 12 11 11 10 9 8 7 6 6 5 5 5 6 6 7 7 8 9 10 9 9 8 8 8 9 9 10 11 12 13 14 15 16 17 18 19 20 21 22 23 24 25 26 28 29 31 33 34 35 37
6 5 2 3 4 3 2 7 10 5 2 10 16 20 21 19 17 16 14 11 9 6 4 2 1 1 1 3 4 6 9 12 13 13 12 11 11 10 9 9 9 8 7 7 7 7 7 7 8 8 9 10 11 12 12 12 12 12 12 12 13 12 13 14 15 16 17 18 19 20 21 22 23 23 24 25 26 27 28 29 30 31 32 34 35 37
6 6 6 5 4 4 6 17 20 10 4 11 20 23 24 24 21 19 16 12 9 7 4 2 1 2 2 4 8 10 11 13 14 13 11 10 10 10 9 8 8 8 7 7 6 6 7 8 9 10 11 13 15 16 16 16 16 16 16 16 16 16 16 17 18 19 20 21 22 23 24 25 26 26 27 28 28 29 29 30 31 32 33 34 35 36
Wind_Direction
162 139 166 201 210 204 203 201 207 208 195 211 222 217 210 219 268 268 258 239 165 159 238 222 225 246 248 251 236 220 211 213 221 225 222 213 210 212 212 213 215 217 222 223 220 211 207 210 206 207 203 187 183 178 171 167 164 169 168 168 172 172 174 178 180 184 187 190 182 170 173 171 163 162 162 159 159 159 159 158 160 166 169 167 163 159
159 184 222 220 215 201 204 211 215 223 229 244 245 252 257 233 255 269 267 256 165 171 260 253 247 259 252 253 251 220 200 214 220 219 221 215 211 213 213 212 211 212 215 216 215 207 203 204 201 204 197 184 183 177 170 167 166 171 170 172 175 170 173 180 184 189 185 176 172 173 177 171 162 162 165 164 163 166 168 165 163 159 152 145 138 131
190 231 239 231 222 209 224 227 216 220 226 236 232 225 251 251 270 297 317 309 103 176 261 290 278 264 258 256 254 222 204 219 223 220 221 216 210 212 212 209 207 207 209 211 212 207 202 201 199 203 193 181 184 181 177 175 174 176 175 179 182 177 179 183 184 183 172 168 175 180 175 170 166 164 169 172 167 166 161 151 146 140 135 131 126 121
209 242 239 229 218 209 239 255 235 222 221 222 203 180 235 251 250 277 300 297 296 234 258 307 298 271 265 263 257 240 228 227 229 227 225 219 214 214 213 212 209 207 207 208 210 207 201 200 199 201 193 183 184 185 185 186 186 186 186 189 189 183 181 181 179 174 171 173 175 176 172 171 170 165 169 168 157 152 147 140 136 132 128 125 121 118
212 225 229 208 203 205 224 246 232 209 238 248 196 184 213 222 213 229 275 320 338 335 322 337 312 280 257 250 257 256 240 233 234 229 226 225 223 220 215 213 212 213 213 212 211 208 203 201 201 200 194 187 185 188 191 190 187 184 183 185 184 181 181 180 177 175 179 178 175 175 172 171 169 162 159 155 147 144 142 137 133 128 125 123 120 117
230 231 233 170 190 208 211 228 213 184 216 275 232 203 207 212 223 232 280 33 6 323 303 60 307 283 273 245 258 285 242 230 232 223 222 224 221 218 214 211 212 214 217 219 219 213 205 201 199 197 194 190 187 190 195 189 181 178 177 178 179 179 179 180 179 180 186 185 180 178 171 168 163 153 150 149 145 143 142 137 133 128 125 125 121 117
221 214 217 195 189 202 207 227 221 176 171 253 248 208 207 217 227 230 219 73 266 268 286 95 166 273 290 260 252 256 245 238 229 222 224 220 214 213 212 210 210 211 213 217 219 215 206 201 200 197 194 192 189 190 193 186 179 179 178 177 179 180 181 182 183 185 189 188 183 178 169 164 158 151 148 148 146 144 142 137 133 131 127 125 121 117
168 179 197 198 191 191 197 221 223 166 147 231 249 178 180 205 215 216 183 177 219 252 321 15 140 271 281 264 244 226 236 252 242 234 231 220 212 210 210 210 210 212 213 213 214 212 207 204 203 200 196 194 191 191 190 184 180 181 179 178 180 182 184 185 186 187 186 184 178 171 166 161 156 153 149 148 148 145 142 139 136 134 132 128 124 118
143 167 183 183 184 193 198 220 197 156 151 240 234 125 132 164 168 143 118 144 297 3 304 285 140 264 272 264 256 200 222 251 247 237 231 220 213 208 207 209 210 212 214 215 216 213 207 205 204 202 198 193 192 193 191 184 182 182 180 182 184 185 188 187 186 184 181 179 174 168 166 161 157 157 152 150 151 147 145 144 140 138 135 131 127 118
195 180 184 167 175 199 195 235 170 164 187 210 147 82 68 69 75 76 91 93 27 335 242 221 172 241 269 243 190 192 228 241 243 240 233 219 213 210 207 206 207 210 212 215 217 215 209 205 203 201 198 194 192 194 192 186 184 185 184 186 188 188 189 187 184 181 176 175 173 170 169 165 161 160 156 154 153 149 150 150 144 142 138 132 127 118
324 158 184 149 168 172 144 79 40 166 174 134 93 56 41 22 32 42 48 78 46 275 232 200 186 201 266 263 185 201 223 220 229 243 239 215 209 211 210 206 206 207 209 210 212 213 210 204 200 200 198 195 193 193 192 189 187 187 188 189 189 189 189 186 182 178 173 173 174 173 173 172 169 166 163 160 157 153 155 156 149 145 141 135 129 119
348 73 242 160 151 126 106 74 26 37 117 109 87 79 62 347 13 22 2 56 210 257 229 199 190 189 233 262 228 234 254 229 216 229 232 207 204 210 210 209 208 208 209 208 208 209 206 200 198 198 198 196 193 192 192 191 189 189 191 191 189 188 187 185 180 175 172 173 176 176 176 177 176 172 168 166 162 159 159 159 153 148 145 140 133 122
309 238 229 129 168 157 123 88 19 6 39 95 106 111 115 286 359 3 304 155 226 255 252 195 178 196 236 252 254 257 267 253 226 230 236 220 208 207 207 208 208 208 209 209 207 208 206 201 199 198 198 196 194 192 192 191 191 191 192 192 190 187 184 182 178 174 175 176 177 178 178 179 177 172 169 169 166 162 161 160 156 151 148 143 134 125
270 298 235 142 244 193 165 156 185 251 167 147 139 139 156 181 223 266 244 254 257 264 285 188 160 233 269 267 245 245 257 256 249 259 257 237 220 212 207 206 206 206 208 209 208 209 208 205 201 199 198 196 194 193 192 191 191 192 193 192 190 187 182 179 178 177 178 179 178 179 180 181 179 175 172 172 171 166 162 161 158 152 149 143 135 128
210 289 206 183 202 184 185 190 169 140 155 179 147 137 155 155 181 227 206 223 260 276 297 255 158 203 217 252 239 244 272 270 258 262 254 236 223 212 204 201 202 204 206 208 209 210 211 208 203 201 199 197 195 193 192 192 192 194 193 191 189 186 181 180 181 181 181 180 179 180 182 182 181 180 176 174 173 170 167 164 161 156 150 145 139 134
194 257 223 186 153 166 185 191 134 112 141 225 115 118 183 183 184 234 206 188 205 294 285 214 216 221 211 260 260 266 306 290 257 246 215 204 203 195 194 196 199 203 204 206 209 210 210 209 205 202 200 198 195 193 192 192 193 194 193 191 189 186 183 182 184 184 183 182 181 182 183 184 184 184 181 177 174 171 169 166 163 160 154 150 149 144
178 268 275 103 99 172 188 178 147 152 175 174 136 173 202 173 164 215 272 5 65 282 262 193 242 285 309 276 250 190 257 282 283 230 193 190 188 186 192 195 199 202 204 206 209 209 209 208 206 203 201 199 194 192 192 193 194 194 193 191 189 187 186 186 186 186 186 185 185 185 185 187 187 186 185 184 180 174 171 168 166 166 162 158 158 152
161 245 285 115 153 238 205 124 117 136 139 132 186 200 149 68 96 131 259 342 32 266 269 202 234 263 258 267 254 140 209 259 258 232 199 190 187 191 197 198 201 203 205 207 208 209 210 209 208 204 201 199 195 193 193 194 196 195 194 193 190 189 189 188 188 188 189 189 188 188 188 189 189 188 188 187 184 180 176 175 173 172 172 168 164 157
154 195 287 123 187 263 36 114 107 37 119 135 186 184 121 113 190 130 183 236 192 253 282 246 229 232 214 223 182 162 212 234 236 219 209 204 198 200 202 200 201 202 203 206 207 209 210 210 209 204 201 199 196 194 195 196 196 196 195 195 193 192 192 191 191 191 192 192 192 192 192 191 190 189 190 189 187 186 183 182 181 178 179 176 169 161
151 200 256 321 223 252 32 137 164 199 217 56 76 155 116 136 173 168 178 173 161 229 277 279 253 237 218 198 179 192 210 218 217 205 209 215 208 206 204 200 200 202 205 208 208 210 210 209 208 204 201 199 196 196 197 197 198 196 195 195 195 195 195 194 195 194 194 194 194 196 194 193 193 192 192 193 192 191 189 189 188 186 186 183 178 173
125 209 219 315 331 196 179 197 188 186 183 148 150 178 179 123 117 179 216 160 146 189 237 264 270 260 226 185 184 194 206 212 208 200 211 219 214 211 208 204 204 205 208 210 210 211 210 207 206 204 201 200 197 197 198 199 198 197 197 197 197 198 198 197 198 197 197 196 196 198 197 196 195 195 196 196 195 196 196 195 194 192 192 191 190 190
187 196 164 152 230 210 222 239 213 189 180 177 183 184 180 169 142 187 247 213 156 200 201 212 272 269 229 183 195 194 203 211 205 201 211 219 216 214 213 211 210 210 211 212 211 211 209 206 205 203 201 200 199 199 199 200 199 199 199 199 200 201 200 200 200 199 199 199 199 199 200 199 199 199 200 199 199 201 201 200 199 198 200 200 202 205
152 129 153 180 201 206 245 274 261 132 125 132 186 183 177 181 173 184 228 220 159 235 223 151 277 276 244 162 227 217 217 218 210 206 212 220 220 218 216 214 214 214 213 213 212 211 210 207 205 203 201 201 201 200 201 201 201 201 201 201 202 203 202 203 203 202 201 201 201 201 201 203 204 204 204 203 205 206 205 204 204 204 205 208 212 215
99 111 173 209 352 19 328 335 8 48 86 108 221 188 182 204 200 194 215 183 164 226 202 159 260 266 329 349 303 297 251 232 220 213 214 221 223 219 217 215 213 212 211 212 211 210 209 207 205 204 203 202 202 202 202 202 202 202 203 203 204 205 204 204 204 204 203 203 203 203 203 206 208 208 207 208 210 210 208 208 208 209 211 214 219 221
159 174 154 133 324 325 336 335 337 336 172 200 226 196 192 209 205 213 290 123 245 229 174 183 249 246 306 325 336 2 326 274 243 223 220 224 224 219 216 215 212 209 208 209 210 208 207 207 206 206 205 204 203 204 204 204 204 204 205 206 206 206 206 205 206 206 206 205 205 205 206 209 211 211 211 212 213 213 212 211 212 214 217 218 222 224
165 178 157 161 208 222 227 229 208 192 182 208 223 189 194 203 196 202 219 214 242 229 161 200 244 248 14 334 311 327 329 296 271 237 226 228 228 222 215 213 211 208 208 209 208 208 208 208 207 207 207 206 206 206 206 206 206 206 207 208 208 208 208 207 207 207 208 208 208 209 210 212 212 213 213 215 215 215 215 215 216 219 221 222 224 226
137 203 179 182 202 217 235 241 170 137 158 202 211 194 196 204 197 195 214 222 227 193 190 225 237 254 268 266 274 274 247 244 259 244 230 228 227 224 217 215 213 210 210 209 207 207 208 208 209 208 209 209 208 208 208 208 208 208 209 209 209 210 210 209 208 209 210 211 211 212 214 214 215 215 216 217 217 217 217 218 220 222 223 224 225 228
101 198 192 194 206 220 240 244 188 152 181 201 203 200 201 202 196 195 213 223 199 124 248 241 215 244 254 230 224 245 226 227 248 236 232 228 223 221 217 213 211 209 209 209 208 209 210 210 210 209 210 210 210 210 210 210 211 211 212 212 211 212 212 211 210 210 212 213 214 216 217 217 217 216 217 219 219 219 219 220 222 223 223 224 226 229
117 194 199 201 212 223 237 239 210 179 199 204 199 203 203 198 198 204 214 222 199 193 249 248 192 229 250 230 216 228 206 213 227 225 227 227 223 221 213 208 208 207 208 209 211 213 213 212 211 210 211 211 211 212 212 212 212 213 214 214 214 214 214 213 213 213 214 216 217 218 218 218 218 218 219 220 220 220 221 222 223 224 224 225 228 228
136 206 203 199 215 228 235 237 217 187 205 221 209 209 208 203 204 207 212 220 215 218 243 248 234 245 252 212 209 225 218 222 228 223 222 222 222 217 209 208 210 209 209 212 214 215 214 213 213 211 212 212 213 214 214 214 215 215 216 216 216 217 216 215 215 215 216 219 220 220 220 219 220 219 220 221 222 223 223 224 224 224 224 227 228 228
125 228 205 165 209 239 242 240 218 192 213 235 234 227 221 215 212 211 215 220 220 228 241 246 252 260 252 172 205 225 216 217 220 215 218 221 221 215 208 211 212 211 213 214 214 213 212 213 213 213 213 214 215 216 217 218 218 218 218 219 219 219 218 217 217 218 220 222 222 221 221 221 221 221 221 222 224 224 224 224 225 225 226 228 229 228
143 228 29 86 200 244 249 237 210 207 225 245 254 246 232 218 206 213 219 217 214 226 239 245 252 257 244 175 202 207 187 197 209 212 218 222 221 214 211 213 214 214 215 214 213 213 213 214 215 216 217 219 220 221 222 222 222 221 222 222 222 222 220 220 220 221 223 224 223 223 222 222 222 223 223 224 225 226 225 225 226 227 229 230 230 231
156 190 179 135 212 249 255 193 166 179 220 240 248 246 237 216 198 213 224 224 217 218 228 231 239 250 239 172 205 208 188 203 212 215 222 223 218 214 216 218 217 216 216 216 216 216 216 218 219 221 223 224 226 227 227 226 227 227 227 226 224 223 222 223 223 224 225 225 225 225 225 224 224 225 225 226 227 227 226 226 228 229 231 232 232 233
172 201 212 170 208 247 226 109 111 192 227 238 244 237 227 211 206 214 224 226 220 217 227 238 248 254 226 178 209 216 205 215 222 227 231 229 221 217 217 218 218 217 219 221 221 222 222 223 224 226 228 230 231 231 230 231 232 233 232 229 227 226 226 226 226 227 227 227 227 227 227 226 226 227 227 227 228 228 227 228 229 230 231 232 233 233
185 208 217 166 200 247 137 109 182 219 227 253 353 2 233 211 207 217 229 233 226 220 229 243 252 253 235 211 219 220 219 225 228 232 233 228 224 221 217 215 216 219 221 220 220 223 225 226 227 229 230 232 233 233 233 235 237 237 236 235 234 232 230 230 230 230 230 230 230 229 229 229 229 229 229 229 229 229 229 230 231 231 231 233 235 234
185 198 201 162 197 226 117 184 223 248 288 289 326 8 346 136 172 209 238 246 235 223 226 234 243 247 243 233 231 230 231 228 224 230 229 222 222 222 215 208 205 210 213 212 215 221 225 227 229 230 232 233 234 234 236 239 240 241 241 240 238 237 236 235 234 234 235 234 233 232 232 232 231 231 231 231 231 231 232 232 233 233 233 234 235 234
186 186 184 196 204 195 211 230 243 314 302 278 255 190 171 161 160 176 225 250 235 222 224 229 241 247 239 230 226 218 211 206 211 230 206 189 191 197 195 191 188 193 198 195 200 206 209 216 220 221 225 226 227 231 235 238 241 242 243 241 240 239 238 237 238 239 239 238 237 237 237 236 235 234 234 234 234 234 234 235 235 235 235 235 236 236
195 191 186 199 208 189 219 243 247 268 268 264 253 212 188 176 163 164 209 254 241 223 227 227 238 241 227 211 202 178 160 168 242 220 170 164 171 177 179 181 180 178 176 174 179 183 182 184 187 190 196 201 209 220 225 230 236 238 240 240 240 239 239 239 241 242 242 242 243 243 242 241 240 239 239 238 238 238 237 237 238 238 238 238 239 241
179 190 178 193 206 188 211 231 224 236 248 234 230 244 218 141 126 118 187 258 284 343 285 237 237 239 214 179 167 150 148 195 241 204 175 173 182 185 187 187 176 172 175 173 172 170 164 162 163 173 190 207 220 224 221 224 230 234 238 239 239 240 241 243 245 246 246 248 249 248 248 246 245 244 243 244 244 242 241 241 242 242 241 241 242 244
156 169 177 202 216 207 216 230 228 244 256 196 204 235 186 135 134 117 197 254 275 351 338 272 231 220 186 173 166 155 181 217 213 176 176 185 192 188 189 184 173 175 177 170 168 169 170 186 211 226 236 235 227 222 218 221 226 231 236 239 239 241 244 247 250 251 252 253 253 252 252 250 250 249 249 249 249 247 246 245 245 244 243 244 244 244
188 198 188 209 222 217 220 235 247 253 248 198 197 194 142 126 143 173 216 234 259 349 352 345 226 201 181 175 173 173 197 204 153 147 164 177 183 182 183 181 178 184 186 183 192 205 216 230 233 231 230 220 212 213 213 216 221 225 230 233 237 242 247 252 254 254 255 255 254 254 254 253 253 253 253 253 253 251 249 248 247 246 246 246 246 245
174 174 193 212 221 223 223 226 246 267 234 152 145 164 149 140 183 205 188 152 145 175 47 48 230 201 181 174 175 178 156 124 122 141 151 165 181 188 196 205 210 220 218 211 215 218 219 222 218 211 207 203 203 207 209 212 217 219 223 229 237 247 254 254 252 252 253 253 253 253 254 254 254 255 255 254 254 253 252 252 251 250 248 248 247 246
166 161 193 210 198 185 220 215 227 261 194 146 134 139 170 182 189 161 138 119 131 124 91 77 114 196 190 182 166 152 143 131 129 137 145 157 168 176 187 195 199 207 211 213 218 218 213 209 206 205 203 201 203 206 208 211 214 214 220 230 236 240 237 237 240 243 245 247 249 251 252 254 255 255 255 255 255 255 256 255 254 253 251 250 249 248
178 172 193 210 180 157 197 212 217 272 180 155 146 150 166 166 158 137 112 78 118 107 83 70 75 163 192 190 171 154 149 144 141 145 149 150 149 156 165 166 170 184 196 203 207 207 203 199 198 197 196 198 201 202 204 207 207 209 217 221 212 208 217 226 233 238 242 245 248 250 252 254 256 256 257 257 257 258 258 258 257 256 254 253 252 251
195 174 165 175 170 154 185 209 252 340 173 163 138 112 137 147 152 138 92 112 155 131 97 80 83 123 167 183 178 165 159 158 154 152 152 148 149 157 162 167 174 181 188 191 189 187 185 186 189 190 190 192 194 194 196 195 197 206 216 217 219 226 231 235 238 242 246 248 250 253 254 255 256 257 257 258 258 258 258 258 258 257 256 255 253 252
198 162 112 107 161 161 114 158 275 310 200 181 162 135 144 152 157 151 154 161 151 138 117 94 90 113 138 168 178 170 165 164 155 149 151 152 153 157 160 164 168 168 172 176 174 172 173 173 178 185 187 190 193 192 192 194 205 227 237 233 234 238 239 242 247 251 254 256 258 258 258 258 258 259 259 258 259 259 259 259 259 259 258 257 256 255
261 193 106 90 170 181 119 123 207 280 233 207 195 174 168 169 165 159 161 161 152 148 140 106 91 111 132 157 178 175 169 166 159 154 158 157 154 154 154 154 155 154 156 161 162 168 173 176 188 197 201 209 212 213 215 223 241 255 249 239 238 241 245 250 256 261 264 268 270 268 267 266 266 265 264 264 263 263 263 262 262 260 259 257 256 256
194 169 151 120 157 153 104 286 283 277 240 224 212 197 188 182 174 169 169 168 162 159 160 134 109 121 129 144 171 178 173 173 175 168 160 156 154 152 149 148 150 151 154 161 171 182 190 201 219 227 233 237 239 240 240 242 250 253 251 253 254 256 261 262 264 268 272 275 276 275 275 275 273 271 271 270 269 269 268 268 267 266 264 263 260 259
135 150 167 132 114 108 331 251 142 21 269 248 230 207 195 189 186 184 185 184 181 178 176 162 127 102 124 142 160 173 172 170 172 168 160 156 155 153 151 152 156 160 168 177 189 200 209 221 232 237 241 242 242 244 245 244 245 246 248 256 259 262 266 267 268 272 274 274 276 277 278 278 278 277 276 275 274 273 272 271 270 269 269 268 266 265
125 154 172 109 135 192 216 178 170 151 218 229 219 208 200 195 195 197 195 192 193 197 198 190 142 113 176 162 153 164 167 160 157 159 158 155 155 155 156 159 164 171 178 185 198 210 220 232 241 246 250 250 250 251 251 249 248 247 248 250 253 255 259 262 266 270 273 275 277 278 278 279 279 278 277 277 276 275 274 273 272 272 271 271 269 269
163 179 176 148 168 217 187 177 178 171 169 204 208 208 206 201 200 202 199 196 201 204 200 207 191 154 173 169 156 157 161 160 159 160 159 157 158 159 162 166 172 178 184 192 204 218 229 240 249 255 257 257 256 257 257 256 255 255 254 254 255 255 257 260 265 269 274 278 279 278 278 278 277 277 278 278 277 277 277 277 275 275 274 273 272 271